CW3577 Weather Reports


Display with metric or nautical units.
time (UTC)temp
F
wind
direction
speed
MPH
gust
MPH
rain 1hr
in
rain 24hr
in
rain mn
in
humidity
%
barometer
mb
20260504024556 37 288 0.0 2.0 0.00 0.01 0.01 76 1010.4
20260504023005 37 288 0.0 0.0 0.00 0.01 0.01 75 1010.4
20260504021531 38 288 0.0 1.0 0.00 0.01 0.01 73 1010.3
20260504020051 38 288 0.0 1.0 0.00 0.01 0.01 71 1010.3
20260504014520 39 288 0.0 0.0 0.00 0.01 0.01 68 1010.1
20260504013047 40 288 0.0 1.0 0.00 0.01 0.01 66 1010.0
20260504011510 42 360 0.0 1.0 0.00 0.01 0.01 64 1009.9
20260504010029 43 360 0.0 1.0 0.00 0.01 0.01 61 1009.7
20260504004603 45 288 0.0 1.0 0.00 0.01 0.01 57 1009.5
20260504003021 46 360 0.0 1.0 0.00 0.01 0.01 53 1009.3
20260504001543 48 286 0.0 2.0 0.00 0.01 0.01 46 1009.1
20260504000007 49 294 0.0 9.0 0.00 0.01 0.01 44 1009.0
20260503234525 50 273 5.0 10.0 0.00 0.01 0.01 43 1008.8
20260503233051 51 318 4.0 10.0 0.00 0.01 0.01 42 1008.7
20260503231513 51 280 7.0 12.0 0.00 0.01 0.01 41 1008.6
20260503230036 51 282 3.0 18.0 0.00 0.01 0.01 40 1008.5
20260503224551 52 300 8.0 18.0 0.00 0.01 0.01 39 1008.2
20260503223020 52 281 9.0 24.0 0.00 0.01 0.01 37 1008.0
20260503221539 52 320 8.0 21.0 0.00 0.01 0.01 38 1008.0
20260503220007 52 309 3.0 25.0 0.00 0.06 0.01 39 1007.8
20260503214527 52 321 7.0 17.0 0.00 0.06 0.01 39 1007.6
20260503213054 52 355 8.0 17.0 0.00 0.06 0.01 38 1007.6
20260503211520 52 342 10.0 22.0 0.00 0.06 0.01 37 1007.5
20260503210033 53 317 8.0 19.0 0.00 0.10 0.01 37 1007.1
20260503204600 53 286 10.0 19.0 0.00 0.10 0.01 38 1007.0
20260503203021 53 267 11.0 18.0 0.00 0.10 0.01 36 1006.6
20260503201547 54 40 6.0 18.0 0.00 0.10 0.01 37 1006.5
20260503200009 53 265 7.0 23.0 0.00 0.10 0.01 39 1006.5
20260503194542 53 310 9.0 18.0 0.00 0.10 0.01 37 1006.5
20260503193057 53 336 9.0 22.0 0.00 0.10 0.01 40 1006.6
20260503191518 53 294 5.0 17.0 0.00 0.10 0.01 41 1006.6
20260503190042 53 261 5.0 15.0 0.00 0.10 0.01 42 1006.6
20260503184503 53 305 6.0 23.0 0.00 0.10 0.01 43 1006.7
20260503183022 54 327 6.0 18.0 0.00 0.10 0.01 43 1006.7
20260503181546 53 10 7.0 14.0 0.00 0.10 0.01 45 1006.7
20260503180015 53 355 6.0 19.0 0.00 0.10 0.01 48 1006.8
20260503174543 52 309 8.0 16.0 0.00 0.10 0.01 47 1006.8
20260503173058 51 42 2.0 23.0 0.00 0.10 0.01 55 1006.9
20260503171520 51 322 9.0 20.0 0.00 0.10 0.01 52 1007.0
20260503100106 41 318 2.0 6.0 0.00 0.26 0.00 87 1007.8
20260503081520 42 309 1.0 8.0 0.00 0.26 0.00 88 1008.9
20260503071541 42 305 2.0 6.0 0.00 0.26 0.00 92 1009.2
20260503054549 43 314 0.0 3.0 0.00 0.26 0.00 92 1010.2
20260503053005 43 324 1.0 3.0 0.00 0.26 0.00 92 1010.4
20260503051533 43 325 0.0 5.0 0.00 0.26 0.00 92 1010.4
20260503050053 44 355 1.0 3.0 0.00 0.26 0.00 92 1010.7
20260503044519 44 330 0.0 5.0 0.00 0.26 0.00 92 1010.7
20260503043039 44 304 2.0 4.0 0.00 0.26 0.00 92 1010.9
20260503041502 44 317 1.0 5.0 0.00 0.26 0.00 92 1011.2
20260503040024 45 309 0.0 3.0 0.00 0.26 0.26 93 1011.2
20260503034559 45 5 0.0 2.0 0.00 0.26 0.26 93 1011.1
20260503033058 45 5 0.0 1.0 0.00 0.26 0.26 93 1011.4
20260503031521 45 5 0.0 1.0 0.00 0.26 0.26 92 1011.3
20260503030046 45 5 0.0 0.0 0.00 0.26 0.26 91 1011.2